Location: ?????
(55.8833°N, 37.6500°E)
Time: 06:59:58
(UTC+00:00)

SL-08 RB Rocket - Pass Details

Date: 27 February 2020
Orbit: 647 x 684 km, 97.8° (Epoch: 30 March)

Event Time Altitude Azimuth Distance (km) Brightness Sun altitude
Exits shadow 16:26:21 13° 131° (SE) 1,836 5.5 -13.1°
Maximum altitude 16:29:57 40° 65° (ENE) 957 4.1 -13.6°
Drops below altitude 10° 16:34:10 10° 356° (N) 2,065 6.4 -14.2°
Sets 16:36:28 0° 349° (N) 2,980 7.3 -14.5°
